• En España
  • Lista de países
  • Para 7 días
  • Temperatura del agua
  • Mapa Satelital
  • El tiempo en el mapa
  • Informadores
  • user-avatar
    Iniciar sesión

    Tiempo cada hora Aldiyarovo

    Hoy, 19 Agosto, Domingo

    Tiempo Temperatura Precipitaciones Viento Presión Humedad
    00:00 +11°C° 0 mm 1 mps 748 mmHg 87%
    01:00 +11°C° 0 mm 1 mps 749 mmHg 87%
    02:00 +9°C° 0 mm 0 mps 749 mmHg 88%
    03:00 +9°C° 0 mm 0 mps 749 mmHg 88%
    04:00 +10°C° 0 mm 0 mps 749 mmHg 86%
    05:00 +10°C° 0 mm 0 mps 749 mmHg 84%
    06:00 +11°C° 0 mm 0 mps 749 mmHg 82%
    07:00 +13°C° 0 mm 0 mps 749 mmHg 76%
    08:00 +15°C° 0 mm 0 mps 749 mmHg 70%
    09:00 +17°C° 0 mm 0 mps 749 mmHg 62%
    10:00 +18°C° 0 mm 0 mps 748 mmHg 59%
    11:00 +21°C° 0 mm 1 mps 748 mmHg 55%
    12:00 +22°C° 0 mm 1 mps 748 mmHg 51%
    13:00 +22°C° 0 mm 1 mps 748 mmHg 51%
    14:00 +22°C° 0 mm 1 mps 747 mmHg 50%
    15:00 +22°C° 0 mm 1 mps 747 mmHg 50%
    16:00 +21°C° 0 mm 1 mps 747 mmHg 55%
    17:00 +21°C° 0 mm 1 mps 746 mmHg 60%
    18:00 +20°C° 0 mm 1 mps 746 mmHg 65%
    19:00 +18°C° 0 mm 1 mps 746 mmHg 68%
    20:00 +16°C° 0 mm 2 mps 746 mmHg 71%
    21:00 +14°C° 0 mm 2 mps 746 mmHg 74%
    22:00 +14°C° 0 mm 2 mps 745 mmHg 75%
    23:00 +13°C° 0 mm 2 mps 745 mmHg 77%

    Mañana, 20 Agosto, Lunes

    Tiempo Temperatura Precipitaciones Viento Presión Humedad
    00:00 +13°C° 0 mm 2 mps 745 mmHg 79%
    01:00 +12°C° 0 mm 2 mps 745 mmHg 82%
    02:00 +12°C° 0 mm 2 mps 745 mmHg 84%
    03:00 +12°C° 0 mm 2 mps 745 mmHg 87%
    04:00 +11°C° 0 mm 3 mps 744 mmHg 86%
    05:00 +12°C° 0 mm 3 mps 744 mmHg 85%
    06:00 +12°C° 0 mm 3 mps 744 mmHg 85%
    07:00 +14°C° 0 mm 3 mps 744 mmHg 80%
    08:00 +15°C° 0 mm 4 mps 743 mmHg 74%
    09:00 +18°C° 0 mm 4 mps 743 mmHg 69%
    10:00 +18°C° 0 mm 4 mps 743 mmHg 69%
    11:00 +19°C° 0 mm 5 mps 742 mmHg 69%
    12:00 +20°C° 0 mm 5 mps 742 mmHg 68%
    13:00 +20°C° 0,2 mm 5 mps 742 mmHg 69%
    14:00 +21°C° 0,2 mm 4 mps 741 mmHg 69%
    15:00 +22°C° 0,2 mm 4 mps 741 mmHg 70%
    16:00 +21°C° 0,6 mm 4 mps 741 mmHg 76%
    17:00 +20°C° 0,6 mm 3 mps 740 mmHg 81%
    18:00 +19°C° 0,6 mm 2 mps 740 mmHg 87%
    19:00 +18°C° 0,3 mm 2 mps 740 mmHg 90%
    20:00 +18°C° 0,3 mm 2 mps 740 mmHg 92%
    21:00 +17°C° 0,3 mm 2 mps 740 mmHg 95%
    22:00 +16°C° 0 mm 2 mps 740 mmHg 95%
    23:00 +16°C° 0 mm 2 mps 739 mmHg 95%

    Pasado mañana, 21 Agosto, Martes

    Tiempo Temperatura Precipitaciones Viento Presión Humedad
    00:00 +15°C° 0 mm 2 mps 739 mmHg 95%
    01:00 +15°C° 0 mm 2 mps 739 mmHg 94%
    02:00 +15°C° 0 mm 2 mps 739 mmHg 94%
    03:00 +15°C° 0 mm 2 mps 739 mmHg 94%
    04:00 +16°C° 0 mm 2 mps 739 mmHg 93%
    05:00 +16°C° 0 mm 2 mps 739 mmHg 93%
    06:00 +16°C° 0 mm 2 mps 739 mmHg 93%
    07:00 +17°C° 0,1 mm 2 mps 739 mmHg 90%
    08:00 +19°C° 0,1 mm 2 mps 739 mmHg 87%
    09:00 +20°C° 0,1 mm 2 mps 739 mmHg 85%
    10:00 +21°C° 0,6 mm 3 mps 739 mmHg 79%
    11:00 +22°C° 0,6 mm 3 mps 738 mmHg 73%
    12:00 +23°C° 0,6 mm 4 mps 738 mmHg 68%
    13:00 +25°C° 0,1 mm 4 mps 737 mmHg 66%
    14:00 +25°C° 0,1 mm 5 mps 737 mmHg 63%
    15:00 +26°C° 0,1 mm 5 mps 736 mmHg 61%
    16:00 +25°C° 0,1 mm 5 mps 736 mmHg 65%
    17:00 +23°C° 0,1 mm 5 mps 735 mmHg 69%
    18:00 +22°C° 0,1 mm 4 mps 735 mmHg 73%
    19:00 +21°C° 0,1 mm 5 mps 735 mmHg 75%
    20:00 +21°C° 0,1 mm 5 mps 734 mmHg 77%
    21:00 +20°C° 0,1 mm 5 mps 734 mmHg 79%
    22:00 +19°C° 0,5 mm 5 mps 734 mmHg 83%
    23:00 +19°C° 0,5 mm 5 mps 733 mmHg 87%

    22 Agosto, Miércoles

    Tiempo Temperatura Precipitaciones Viento Presión Humedad
    00:00 +17°C° 0,5 mm 5 mps 733 mmHg 91%
    01:00 +16°C° 0,8 mm 5 mps 733 mmHg 91%
    02:00 +15°C° 0,8 mm 5 mps 734 mmHg 91%
    03:00 +14°C° 0,8 mm 5 mps 734 mmHg 92%
    04:00 +13°C° 0,1 mm 5 mps 734 mmHg 90%
    05:00 +12°C° 0,1 mm 4 mps 734 mmHg 89%
    06:00 +11°C° 0,1 mm 4 mps 735 mmHg 88%
    07:00 +12°C° 0 mm 4 mps 735 mmHg 82%
    08:00 +13°C° 0 mm 4 mps 735 mmHg 76%
    09:00 +14°C° 0 mm 4 mps 736 mmHg 71%
    10:00 +15°C° 0 mm 4 mps 736 mmHg 66%
    11:00 +18°C° 0 mm 4 mps 736 mmHg 61%
    12:00 +19°C° 0 mm 5 mps 736 mmHg 56%
    13:00 +19°C° 0,1 mm 5 mps 736 mmHg 57%
    14:00 +19°C° 0,1 mm 5 mps 737 mmHg 58%
    15:00 +19°C° 0,1 mm 5 mps 737 mmHg 59%
    16:00 +17°C° 0,4 mm 4 mps 737 mmHg 67%
    17:00 +15°C° 0,4 mm 4 mps 737 mmHg 74%
    18:00 +14°C° 0,4 mm 4 mps 738 mmHg 81%
    19:00 +13°C° 0,2 mm 4 mps 738 mmHg 83%
    20:00 +12°C° 0,2 mm 4 mps 739 mmHg 85%
    21:00 +11°C° 0,2 mm 4 mps 739 mmHg 87%
    22:00 +11°C° 0 mm 4 mps 740 mmHg 88%
    23:00 +10°C° 0 mm 4 mps 740 mmHg 89%

    23 Agosto, Jueves

    Tiempo Temperatura Precipitaciones Viento Presión Humedad
    00:00 +8°C° 0 mm 4 mps 741 mmHg 91%
    01:00 +8°C° 0 mm 4 mps 741 mmHg 92%
    02:00 +7°C° 0 mm 4 mps 742 mmHg 93%
    03:00 +7°C° 0 mm 4 mps 742 mmHg 94%
    04:00 +7°C° 0 mm 4 mps 743 mmHg 93%
    05:00 +7°C° 0 mm 4 mps 743 mmHg 92%
    06:00 +7°C° 0 mm 4 mps 744 mmHg 91%
    07:00 +8°C° 0 mm 4 mps 744 mmHg 82%
    08:00 +10°C° 0 mm 5 mps 745 mmHg 73%
    09:00 +13°C° 0 mm 5 mps 745 mmHg 64%
    10:00 +13°C° 0 mm 5 mps 745 mmHg 60%
    11:00 +14°C° 0 mm 5 mps 745 mmHg 56%
    12:00 +15°C° 0 mm 5 mps 745 mmHg 52%
    13:00 +16°C° 0 mm 5 mps 746 mmHg 51%
    14:00 +16°C° 0 mm 5 mps 746 mmHg 51%
    15:00 +16°C° 0 mm 5 mps 746 mmHg 50%
    16:00 +17°C° 0 mm 4 mps 746 mmHg 56%
    17:00 +16°C° 0 mm 3 mps 746 mmHg 61%
    18:00 +15°C° 0 mm 2 mps 746 mmHg 67%
    19:00 +14°C° 0 mm 2 mps 746 mmHg 68%
    20:00 +13°C° 0 mm 2 mps 746 mmHg 70%
    21:00 +11°C° 0 mm 3 mps 747 mmHg 72%
    22:00 +12°C° 0 mm 2 mps 747 mmHg 71%
    23:00 +12°C° 0 mm 2 mps 747 mmHg 70%

    24 Agosto, Viernes

    Tiempo Temperatura Precipitaciones Viento Presión Humedad
    00:00 +12°C° 0 mm 2 mps 747 mmHg 70%
    01:00 +11°C° 0 mm 3 mps 747 mmHg 71%
    02:00 +10°C° 0 mm 3 mps 747 mmHg 72%
    03:00 +10°C° 0 mm 3 mps 747 mmHg 73%
    04:00 +10°C° 0 mm 3 mps 747 mmHg 74%
    05:00 +10°C° 0 mm 3 mps 747 mmHg 75%
    06:00 +10°C° 0 mm 4 mps 747 mmHg 76%
    07:00 +12°C° 0 mm 4 mps 747 mmHg 72%
    08:00 +14°C° 0 mm 4 mps 747 mmHg 68%
    09:00 +17°C° 0 mm 4 mps 748 mmHg 64%
    10:00 +18°C° 0 mm 4 mps 748 mmHg 60%
    11:00 +20°C° 0 mm 5 mps 747 mmHg 57%
    12:00 +21°C° 0 mm 5 mps 747 mmHg 53%
    13:00 +22°C° 0 mm 5 mps 747 mmHg 53%
    14:00 +22°C° 0 mm 5 mps 747 mmHg 52%
    15:00 +22°C° 0 mm 4 mps 747 mmHg 52%
    16:00 +21°C° 0 mm 4 mps 747 mmHg 58%
    17:00 +20°C° 0 mm 3 mps 748 mmHg 64%
    18:00 +19°C° 0 mm 2 mps 748 mmHg 70%
    19:00 +18°C° 0 mm 2 mps 748 mmHg 72%
    20:00 +16°C° 0 mm 2 mps 748 mmHg 75%
    21:00 +15°C° 0 mm 2 mps 748 mmHg 78%
    22:00 +15°C° 0 mm 2 mps 748 mmHg 79%
    23:00 +14°C° 0 mm 2 mps 748 mmHg 80%
    Mostrar más